When you browse on this site, cookies collect data to enhance your experience and personalize the content and advertising you see.
Visit our Privacy Policy to learn more. By continuing to use the site, you agree to this use of cookies and data.
  • In Hungary
  • List of Countries
  • For 7 days
  • Water Temperature
  • Satellite Maps
  • Weather Map
  • News
  • Weather Widgets
  • user-avatar
    Login

    Hourly Weather Hueyotlipan de Hidalgo

    Today, 19 February, Tuesday

    Time Temperature Precipitation Wind Pressure Humidity
    00:00 +13°C° 0 mm 2 mps 554 mmHg 33%
    01:00 +12°C° 0 mm 2 mps 553 mmHg 34%
    02:00 +12°C° 0 mm 2 mps 553 mmHg 35%
    03:00 +10°C° 0 mm 2 mps 553 mmHg 36%
    04:00 +10°C° 0 mm 2 mps 552 mmHg 36%
    05:00 +9°C° 0 mm 2 mps 552 mmHg 37%
    06:00 +10°C° 0 mm 2 mps 553 mmHg 37%
    07:00 +12°C° 0 mm 3 mps 554 mmHg 36%
    08:00 +13°C° 0 mm 3 mps 555 mmHg 35%
    09:00 +17°C° 0 mm 4 mps 556 mmHg 30%
    10:00 +19°C° 0 mm 5 mps 557 mmHg 24%
    11:00 +21°C° 0 mm 6 mps 558 mmHg 19%
    12:00 +21°C° 0 mm 6 mps 557 mmHg 16%
    13:00 +22°C° 0 mm 6 mps 557 mmHg 14%
    14:00 +22°C° 0 mm 6 mps 557 mmHg 12%
    15:00 +21°C° 0 mm 5 mps 556 mmHg 15%
    16:00 +20°C° 0 mm 5 mps 555 mmHg 17%
    17:00 +18°C° 0 mm 4 mps 554 mmHg 19%
    18:00 +17°C° 0 mm 4 mps 554 mmHg 24%
    19:00 +14°C° 0 mm 3 mps 553 mmHg 30%
    20:00 +13°C° 0 mm 2 mps 553 mmHg 35%
    21:00 +12°C° 0 mm 2 mps 552 mmHg 37%
    22:00 +12°C° 0 mm 1 mps 552 mmHg 40%
    23:00 +12°C° 0 mm 1 mps 552 mmHg 42%

    Tomorrow, 20 February, Wednesday

    Time Temperature Precipitation Wind Pressure Humidity
    00:00 +11°C° 0 mm 1 mps 552 mmHg 44%
    01:00 +11°C° 0 mm 1 mps 551 mmHg 47%
    02:00 +10°C° 0 mm 1 mps 551 mmHg 49%
    03:00 +10°C° 0 mm 1 mps 550 mmHg 50%
    04:00 +9°C° 0 mm 1 mps 550 mmHg 52%
    05:00 +9°C° 0 mm 1 mps 550 mmHg 53%
    06:00 +10°C° 0 mm 1 mps 551 mmHg 48%
    07:00 +12°C° 0 mm 1 mps 552 mmHg 43%
    08:00 +14°C° 0 mm 2 mps 554 mmHg 38%
    09:00 +16°C° 0 mm 2 mps 555 mmHg 33%
    10:00 +18°C° 0 mm 2 mps 555 mmHg 28%
    11:00 +20°C° 0 mm 3 mps 556 mmHg 22%
    12:00 +21°C° 0 mm 3 mps 556 mmHg 21%
    13:00 +21°C° 0 mm 4 mps 556 mmHg 19%
    14:00 +22°C° 0 mm 5 mps 555 mmHg 17%
    15:00 +21°C° 0 mm 5 mps 555 mmHg 19%
    16:00 +20°C° 0 mm 5 mps 554 mmHg 21%
    17:00 +19°C° 0 mm 5 mps 554 mmHg 23%
    18:00 +17°C° 0 mm 4 mps 553 mmHg 27%
    19:00 +14°C° 0 mm 3 mps 553 mmHg 32%
    20:00 +13°C° 0 mm 2 mps 553 mmHg 36%
    21:00 +13°C° 0 mm 2 mps 553 mmHg 38%
    22:00 +12°C° 0 mm 2 mps 552 mmHg 39%
    23:00 +12°C° 0 mm 2 mps 552 mmHg 41%

    Day after tomorrow, 21 February, Thursday

    Time Temperature Precipitation Wind Pressure Humidity
    00:00 +10°C° 0 mm 2 mps 552 mmHg 45%
    01:00 +10°C° 0 mm 2 mps 551 mmHg 48%
    02:00 +9°C° 0 mm 2 mps 551 mmHg 52%
    03:00 +9°C° 0 mm 2 mps 551 mmHg 55%
    04:00 +8°C° 0 mm 2 mps 550 mmHg 57%
    05:00 +8°C° 0 mm 2 mps 550 mmHg 59%
    06:00 +9°C° 0 mm 2 mps 552 mmHg 54%
    07:00 +12°C° 0 mm 2 mps 553 mmHg 48%
    08:00 +14°C° 0 mm 2 mps 554 mmHg 43%
    09:00 +16°C° 0 mm 2 mps 555 mmHg 35%
    10:00 +18°C° 0 mm 3 mps 556 mmHg 28%
    11:00 +20°C° 0 mm 3 mps 557 mmHg 21%
    12:00 +21°C° 0 mm 4 mps 557 mmHg 19%
    13:00 +21°C° 0 mm 4 mps 556 mmHg 17%
    14:00 +22°C° 0 mm 4 mps 556 mmHg 16%
    15:00 +21°C° 0 mm 4 mps 555 mmHg 17%
    16:00 +20°C° 0 mm 4 mps 555 mmHg 19%
    17:00 +19°C° 0 mm 4 mps 554 mmHg 20%
    18:00 +17°C° 0 mm 3 mps 554 mmHg 24%
    19:00 +14°C° 0 mm 3 mps 553 mmHg 29%
    20:00 +13°C° 0 mm 2 mps 553 mmHg 33%
    21:00 +13°C° 0 mm 1 mps 553 mmHg 35%
    22:00 +12°C° 0 mm 1 mps 553 mmHg 37%
    23:00 +12°C° 0 mm 1 mps 553 mmHg 40%

    22 February, Friday

    Time Temperature Precipitation Wind Pressure Humidity
    00:00 +11°C° 0 mm 1 mps 552 mmHg 42%
    01:00 +11°C° 0 mm 1 mps 552 mmHg 43%
    02:00 +10°C° 0 mm 1 mps 551 mmHg 45%
    03:00 +10°C° 0 mm 1 mps 551 mmHg 46%
    04:00 +10°C° 0 mm 1 mps 551 mmHg 47%
    05:00 +9°C° 0 mm 1 mps 551 mmHg 49%
    06:00 +11°C° 0 mm 1 mps 553 mmHg 43%
    07:00 +13°C° 0 mm 1 mps 554 mmHg 37%
    08:00 +14°C° 0 mm 0 mps 556 mmHg 31%
    09:00 +18°C° 0 mm 1 mps 556 mmHg 26%
    10:00 +20°C° 0 mm 1 mps 557 mmHg 21%
    11:00 +21°C° 0 mm 2 mps 558 mmHg 16%
    12:00 +23°C° 0 mm 2 mps 558 mmHg 15%
    13:00 +22°C° 0 mm 3 mps 558 mmHg 15%
    14:00 +24°C° 0 mm 3 mps 557 mmHg 15%
    15:00 +22°C° 0 mm 3 mps 557 mmHg 18%
    16:00 +21°C° 0 mm 4 mps 556 mmHg 21%
    17:00 +20°C° 0 mm 4 mps 555 mmHg 25%
    18:00 +18°C° 0 mm 3 mps 555 mmHg 31%
    19:00 +16°C° 0 mm 2 mps 555 mmHg 37%
    20:00 +14°C° 0 mm 1 mps 554 mmHg 43%
    21:00 +14°C° 0 mm 1 mps 554 mmHg 44%
    22:00 +13°C° 0 mm 1 mps 554 mmHg 45%
    23:00 +13°C° 0 mm 1 mps 554 mmHg 46%

    23 February, Saturday

    Time Temperature Precipitation Wind Pressure Humidity
    00:00 +13°C° 0 mm 1 mps 554 mmHg 50%
    01:00 +12°C° 0 mm 1 mps 553 mmHg 53%
    02:00 +12°C° 0 mm 1 mps 553 mmHg 56%
    03:00 +11°C° 0 mm 1 mps 553 mmHg 60%
    04:00 +11°C° 0 mm 1 mps 553 mmHg 64%
    05:00 +10°C° 0 mm 1 mps 553 mmHg 68%
    06:00 +12°C° 0 mm 1 mps 554 mmHg 64%
    07:00 +13°C° 0 mm 1 mps 555 mmHg 60%
    08:00 +14°C° 0 mm 1 mps 556 mmHg 56%
    09:00 +16°C° 0 mm 1 mps 557 mmHg 50%
    10:00 +18°C° 0 mm 1 mps 558 mmHg 44%
    11:00 +20°C° 0 mm 1 mps 558 mmHg 38%
    12:00 +20°C° 0 mm 1 mps 558 mmHg 37%
    13:00 +21°C° 0 mm 1 mps 557 mmHg 36%
    14:00 +20°C° 0 mm 2 mps 557 mmHg 34%
    15:00 +19°C° 0 mm 2 mps 557 mmHg 36%
    16:00 +19°C° 0 mm 2 mps 556 mmHg 38%
    17:00 +19°C° 0 mm 2 mps 556 mmHg 39%
    18:00 +17°C° 0 mm 2 mps 556 mmHg 44%
    19:00 +16°C° 0 mm 2 mps 556 mmHg 48%
    20:00 +15°C° 0 mm 2 mps 556 mmHg 52%
    21:00 +14°C° 0 mm 1 mps 556 mmHg 54%
    22:00 +13°C° 0 mm 1 mps 555 mmHg 57%
    23:00 +13°C° 0 mm 1 mps 555 mmHg 59%

    24 February, Sunday

    Time Temperature Precipitation Wind Pressure Humidity
    00:00 +12°C° 0 mm 1 mps 554 mmHg 62%
    01:00 +11°C° 0 mm 1 mps 554 mmHg 65%
    02:00 +11°C° 0 mm 1 mps 553 mmHg 67%
    03:00 +10°C° 0 mm 1 mps 553 mmHg 70%
    04:00 +10°C° 0 mm 1 mps 553 mmHg 72%
    05:00 +10°C° 0 mm 1 mps 553 mmHg 74%
    06:00 +11°C° 0 mm 1 mps 554 mmHg 68%
    07:00 +12°C° 0 mm 1 mps 555 mmHg 61%
    08:00 +14°C° 0 mm 2 mps 557 mmHg 55%
    09:00 +16°C° 0 mm 2 mps 557 mmHg 49%
    10:00 +17°C° 0 mm 3 mps 558 mmHg 43%
    11:00 +19°C° 0 mm 3 mps 559 mmHg 37%
    12:00 +20°C° 0 mm 4 mps 558 mmHg 35%
    13:00 +21°C° 0 mm 4 mps 558 mmHg 33%
    14:00 +22°C° 0 mm 4 mps 558 mmHg 31%
    15:00 +21°C° 0 mm 4 mps 557 mmHg 33%
    16:00 +20°C° 0 mm 4 mps 557 mmHg 35%
    17:00 +19°C° 0 mm 4 mps 556 mmHg 38%
    18:00 +18°C° 0 mm 4 mps 556 mmHg 41%
    19:00 +16°C° 0 mm 3 mps 556 mmHg 44%
    20:00 +15°C° 0 mm 2 mps 556 mmHg 47%
    21:00 +14°C° 0 mm 2 mps 555 mmHg 50%
    22:00 +14°C° 0 mm 2 mps 555 mmHg 53%
    23:00 +13°C° 0 mm 1 mps 555 mmHg 57%
    Show more